TOPSWRTT 000
TTAA00 KICT 220712

Wichita AWIPS Roundup
National Weather Service Wichita KS
200 AM CDT TUE JUL 22 2014

....Central Kansas....
  
CITY           SKY/WX    TMP DP  RH WIND       PRES   REMARKS
RUSSELL        CLOUDY    76  70  82 SW8       29.98S                  
SALINA         CLOUDY    85  73  67 S20       29.97S HX  91           
GREAT BEND     CLOUDY    79  66  65 SW7       29.99R HX  81           
ELLSWORTH      CLEAR     81  70  69 SE7       29.99R HX  84           
MCPHERSON      CLEAR     81  73  78 S10       30.00R HX  85           
HAYS           MOCLDY    79  59  50 W5        30.01R HX  80           

....South Central Kansas....
  
CITY           SKY/WX    TMP DP  RH WIND       PRES   REMARKS
HUTCHINSON     CLOUDY    81  73  76 S9        30.00S HX  86           
NEWTON         CLOUDY    81  72  74 S12       30.04R HX  84           
KINGMAN        CLEAR     81  73  78 S9        30.01R HX  85           
WICHITA (ICT)  CLOUDY    80  75  84 S13       30.00F HX  85           
JABARA ARPT    CLOUDY    81  75  82 S16       30.00F HX  87           
MCCONNELL AFB  CLOUDY    79  79 100 S13       30.01F HX  84           
HARPER           N/A     81  73  78 S13G18    30.03F HX  85           
WELLINGTON     CLEAR     81  75  83 CALM      30.01S HX  86           
WINFIELD       CLOUDY    79  75  87 S10       30.02F HX  83           
 
....Southeast Kansas....
  
CITY           SKY/WX    TMP DP  RH WIND       PRES   REMARKS
EUREKA         CLEAR     75  72  88 S7        30.01S FOG              
CHANUTE        MOCLDY    75  72  90 S7        30.03S                  
PARSONS        MOCLDY    77  71  82 S5        30.03F                  
COFFEYVILLE    MOCLDY    76  72  87 S7        30.03R FOG              
INDEPENDENCE   MOCLDY    73  72  94 S7        30.02S FOG              
FORT SCOTT     CLEAR     77  72  83 SW8       30.02S                  
PITTSBURG      PTCLDY    76  76 100 S5        30.04S                  

....Western Kansas....
  
CITY           SKY/WX    TMP DP  RH WIND       PRES   REMARKS
GOODLAND       CLEAR     72  62  71 SW16G24   30.10S                  
HILL CITY      CLEAR     79  60  52 W8        30.00S HX  80           
LIBERAL        CLOUDY    72  63  73 S10       30.06F                  
GARDEN CITY    CLOUDY    74  63  68 SW13G22   30.05R                  
DODGE CITY     CLOUDY    75  62  64 S9        30.04R                  
PRATT          CLOUDY    77  68  73 S9        30.02S                  
MEDICINE LODGE   N/A     78  72  81 S3        30.01S HX  80           

....Northeast Kansas....
  
CITY           SKY/WX    TMP DP  RH WIND       PRES   REMARKS
CONCORDIA      PTCLDY    82  71  69 S18G26    29.96S HX  86           
TOPEKA         PTCLDY    81  75  82 S8        29.97S HX  87           
MANHATTAN      MOCLDY    81  74  79 SW9       29.96S HX  86           
LAWRENCE       PTCLDY    80  74  81 S9        29.98S HX  85           
OLATHE         PTCLDY    77  73  87 S8        29.99F                  
EMPORIA        MOCLDY    76  74  93 S13       29.99F                  

....Oklahoma....
  
CITY           SKY/WX    TMP DP  RH WIND       PRES   REMARKS
GAGE           CLOUDY    80  68  66 W8        30.09S HX  83           
PONCA CITY     CLOUDY    80  74  81 S6        30.01S HX  85           
BARTLESVILLE   MOCLDY    74  73  97 S3        30.03S                  
TULSA          CLOUDY    80  73  79 S13       30.02S HX  84           
OKLAHOMA CITY  CLOUDY    77  72  84 SE8       30.05S                  

Note: "fair" indicates few or no clouds below 12,000 feet with no
significant weather and/or obstructions to visibility.
  

USA.gov is the U.S. government's official web portal to all federal, state and local government web resources and services.